Location: Barcelona
(41.3830°N, 2.1830°E)
Time: 00:30:03
(UTC+02:00)

ISS - Pass Details

Date: 01 August 2020
Orbit: 418 x 420 km, 51.6° (Epoch: 08 August)

Event Time Altitude Azimuth Distance (km) Brightness Sun altitude
Rises 21:57:11 0° 307° (NW) 2,370 2.5 -8.9°
Reaches altitude 10° 21:59:19 10° 311° (NW) 1,503 0.7 -9.2°
Maximum altitude 22:02:39 61° 33° (NNE) 482 -3.5 -9.8°
Enters shadow 22:05:20 15° 112° (ESE) 1,236 -2.0 -10.2°
